Wind_Speed
39 39 39 38 35 33 32 32 31 31 31 30 28 27 27 27 26 25 25 25 25 25 25 27 29 29 26 24 26 28 30 30 30 28 28 28 27 25 25 25 24 22 18 16 15 13 13 16 18 19 20 20 20 20 19 18 16 14 13 13 13 14 15 16 17 18 19 20 21 22 22 23 23 24 24 25 26 26 27 28 28 28 29 29 29
38 38 38 37 35 35 33 33 32 31 31 29 28 27 27 27 27 27 26 26 25 25 26 28 30 29 26 25 27 28 31 31 30 30 29 29 28 26 26 26 24 22 18 15 15 13 14 17 18 20 20 20 19 19 18 17 16 15 15 14 14 15 15 16 17 17 18 19 20 21 22 22 23 23 23 23 23 24 25 25 26 26 26 26 27
35 35 35 35 35 35 34 33 33 32 31 30 28 28 28 27 28 29 28 28 27 26 28 30 30 28 27 27 28 29 31 31 31 30 30 29 28 27 26 26 24 23 20 16 15 14 15 18 19 21 21 21 19 18 17 17 16 16 16 16 16 17 17 17 17 17 18 18 19 20 20 21 21 21 21 20 21 21 22 22 22 23 23 24 24
33 33 33 34 35 34 34 34 33 31 31 30 29 29 28 28 28 30 29 28 28 29 30 31 30 28 29 29 30 30 30 31 31 31 31 29 28 27 26 26 25 24 21 17 16 15 16 18 20 22 23 22 20 19 18 17 16 16 16 16 17 17 18 19 18 18 18 18 18 18 18 18 18 18 18 18 18 18 19 19 19 20 20 20 20
34 34 34 34 34 34 33 32 31 30 30 29 28 27 27 27 28 28 28 28 29 30 31 30 29 29 30 31 30 29 30 31 31 31 31 29 27 26 26 26 24 24 22 18 16 16 16 18 20 23 25 23 22 20 19 18 17 17 17 17 17 17 17 18 19 19 19 18 18 18 18 17 17 17 17 17 17 18 18 18 18 18 18 18 18
35 34 34 34 33 33 32 31 30 29 28 27 25 25 26 28 28 27 28 28 29 30 30 29 29 30 30 30 29 29 29 30 31 31 30 28 26 25 25 25 24 23 23 19 17 17 17 18 20 23 25 25 24 22 20 19 18 18 18 18 18 17 17 18 19 20 20 20 20 19 19 18 18 18 18 18 18 19 19 20 20 19 19 18 17
36 33 32 32 33 32 31 30 29 28 28 27 26 27 30 30 28 27 28 29 30 30 29 28 29 29 29 29 29 29 29 30 31 31 30 28 25 24 24 24 24 23 23 20 18 18 18 19 20 23 25 27 27 26 22 20 19 18 18 18 19 19 19 18 19 20 20 21 22 21 21 20 20 20 20 20 20 20 21 21 21 20 20 18 18
38 36 34 34 34 33 31 30 29 30 31 30 30 32 33 31 28 27 29 31 32 31 30 29 29 29 29 29 29 28 29 30 32 32 30 27 25 23 23 24 24 23 22 21 19 18 19 19 20 23 25 27 29 29 26 22 20 19 18 19 19 20 20 20 20 21 20 21 22 23 23 23 22 22 22 21 22 22 22 22 21 20 20 20 20
39 39 38 37 35 34 32 32 32 32 33 34 34 35 34 32 30 29 30 32 33 32 31 31 30 30 30 29 29 29 30 31 32 32 30 28 26 24 23 24 24 23 22 21 19 19 20 20 20 23 26 28 30 31 28 24 21 20 20 20 20 21 22 21 20 21 22 22 22 23 24 24 25 25 24 23 23 23 23 23 22 21 20 21 22
40 39 38 36 35 34 34 35 35 34 35 36 37 37 35 34 32 31 30 31 32 32 32 32 31 31 30 30 30 30 31 32 32 31 30 29 26 24 24 24 24 23 22 21 20 20 21 21 21 24 26 29 31 32 30 25 22 20 21 21 21 22 23 23 21 21 22 23 23 24 24 25 25 26 26 26 25 25 24 24 24 23 23 23 24
41 41 38 36 35 36 37 38 37 36 36 37 37 37 36 36 34 32 31 31 33 33 32 32 32 31 31 31 31 31 32 32 32 31 30 29 27 25 24 24 24 23 22 21 21 21 21 22 23 25 27 30 32 33 31 26 23 22 23 24 24 23 24 24 23 23 22 23 24 25 26 26 27 27 28 28 28 27 26 26 26 26 26 26 27
44 43 41 39 38 39 40 39 37 36 36 36 36 36 36 36 35 33 32 32 33 33 32 32 31 32 33 32 32 32 32 32 31 30 30 30 28 26 25 25 25 24 22 21 21 22 22 24 25 27 29 31 33 34 32 28 25 24 25 26 26 25 25 25 25 25 25 25 25 25 26 27 28 29 29 30 30 30 29 29 29 29 30 30 31
46 44 43 41 40 40 39 36 34 35 36 36 36 37 37 37 36 34 33 33 32 32 31 31 31 32 33 32 31 31 31 31 30 30 31 30 28 26 25 25 25 24 22 21 22 23 23 24 26 29 30 32 33 34 33 30 29 27 27 28 28 28 28 29 29 28 27 28 28 28 28 28 29 30 31 32 32 32 32 32 32 32 33 34 36
45 43 43 42 40 37 35 34 34 36 37 38 38 39 39 39 38 37 35 33 32 31 31 31 31 33 33 32 30 30 30 30 30 31 32 31 29 27 26 25 26 25 23 22 22 23 24 25 27 29 31 32 33 32 32 32 32 31 31 32 32 31 31 33 33 31 29 29 30 30 30 31 31 31 32 33 34 35 35 35 35 36 36 37 38
43 42 41 41 39 36 35 36 37 38 39 39 39 40 40 41 40 39 36 34 32 31 30 30 31 32 33 31 30 29 29 30 31 32 33 31 29 27 26 25 26 26 25 24 24 24 25 26 27 29 30 31 32 32 33 33 33 33 34 35 35 33 33 36 33 30 30 30 30 31 31 32 32 33 34 35 35 36 37 38 38 39 39 39 40
42 41 40 39 39 38 38 38 39 39 39 37 37 38 39 39 39 38 36 34 33 31 30 31 31 32 32 31 30 30 30 30 32 33 33 32 29 27 25 25 26 27 26 26 26 26 26 26 27 29 30 32 33 34 34 35 34 34 35 35 35 34 35 35 31 30 31 31 32 32 32 32 33 34 35 36 37 38 39 39 40 41 41 41 42
45 42 40 38 39 39 39 40 40 39 38 37 37 36 36 37 37 36 35 34 32 31 30 30 31 32 32 31 31 31 31 32 33 34 34 32 29 27 25 25 26 27 27 27 27 27 28 28 29 30 31 33 34 34 34 34 34 34 34 35 34 35 35 33 30 31 32 33 34 34 34 34 35 36 37 38 38 39 40 40 41 42 43 44 44
50 46 41 39 40 40 40 40 39 38 38 38 38 36 36 37 37 37 36 33 31 30 30 29 30 31 31 31 31 31 32 34 34 35 34 32 29 27 25 25 25 27 27 28 28 29 29 29 30 30 31 31 32 32 32 32 32 32 33 34 34 34 33 31 32 33 33 34 36 36 37 38 40 41 42 42 41 41 41 42 41 42 43 44 46
52 50 44 41 41 41 41 40 39 39 40 40 39 38 37 37 38 38 36 33 31 30 29 28 29 29 29 31 32 33 34 35 36 36 35 32 29 27 25 25 25 26 27 28 29 29 30 30 31 31 31 31 30 30 30 31 31 32 33 34 34 32 30 31 34 34 34 37 38 39 40 42 44 44 44 44 43 42 42 43 44 43 43 45 47
51 50 47 43 42 42 41 41 40 41 42 42 40 38 37 37 39 38 36 33 31 30 28 28 28 27 28 31 33 34 35 36 36 36 35 32 30 28 26 25 25 26 27 28 29 30 31 31 32 33 32 31 30 31 32 32 32 33 33 33 32 29 30 33 34 34 37 40 41 43 44 45 46 45 44 43 43 42 42 43 45 46 47 47 48
50 49 47 45 45 43 42 42 42 42 43 43 41 39 38 39 39 36 33 32 31 30 29 29 29 28 30 33 34 35 36 36 37 37 35 33 30 28 27 26 26 26 27 28 30 31 31 32 33 34 33 32 31 32 33 34 34 34 34 32 30 29 33 35 34 35 38 41 43 45 46 47 47 46 44 43 42 41 40 42 44 47 48 49 50
49 49 49 48 48 46 45 44 43 43 44 43 42 41 40 40 38 34 31 30 29 29 29 30 31 32 33 35 36 35 36 36 37 37 36 34 31 29 28 27 26 27 28 29 30 31 32 33 33 34 34 32 32 33 34 34 34 33 32 31 29 31 35 36 35 36 39 42 44 46 47 48 49 47 45 44 43 41 40 40 41 44 46 48 49
49 49 50 50 50 48 48 46 44 45 44 44 44 42 42 41 37 32 29 28 28 28 28 30 32 34 36 36 36 35 36 36 37 37 36 34 32 30 28 27 27 27 28 29 31 32 33 33 33 33 33 32 33 35 36 35 34 33 31 29 29 33 37 38 36 37 41 44 46 48 49 50 50 49 47 46 45 44 42 41 42 43 44 45 46
50 51 51 50 49 48 48 46 46 46 46 46 45 43 42 40 34 30 28 28 28 28 28 30 34 37 37 37 36 35 36 36 37 37 36 35 32 30 29 28 28 28 29 30 32 33 33 32 31 32 32 32 34 37 37 35 34 33 31 29 31 35 38 40 38 39 43 46 48 50 51 52 52 50 49 48 47 47 46 45 46 46 46 45 45
51 51 51 49 47 47 47 47 47 47 48 47 44 42 40 36 31 29 29 30 30 30 31 34 38 39 38 37 35 35 36 37 37 37 36 35 33 31 30 29 29 29 30 31 33 34 32 30 30 31 32 33 35 38 37 35 34 33 31 32 34 37 39 41 40 42 46 48 50 52 53 53 53 52 51 50 49 48 48 48 48 48 47 47 46
51 51 49 49 48 48 48 48 48 48 48 46 43 41 38 34 31 30 31 33 33 33 35 39 41 39 37 36 35 36 37 38 38 37 37 35 34 32 31 30 30 30 31 32 34 34 32 31 31 33 34 36 38 40 39 37 36 34 32 34 37 39 41 42 42 44 47 49 52 54 54 55 54 54 53 52 50 50 49 49 48 47 47 47 47
49 49 49 49 49 50 49 49 49 48 48 46 43 41 37 34 33 32 32 33 34 35 38 41 41 38 35 36 37 38 39 38 38 37 37 36 34 33 31 31 31 31 32 33 34 34 33 33 34 35 36 38 40 42 42 40 39 37 36 36 39 41 42 43 43 45 49 51 53 55 55 55 55 55 55 53 51 50 49 48 47 47 47 48 49
50 50 51 51 51 51 51 51 50 49 47 46 44 42 38 36 35 34 33 32 34 37 40 42 40 37 36 37 38 40 40 39 38 38 37 36 35 33 32 31 31 32 33 34 34 34 34 34 35 36 37 39 41 43 43 42 42 41 39 40 43 44 43 43 43 47 51 53 55 56 56 56 55 56 56 54 51 49 48 47 48 47 47 47 48
51 52 53 53 52 52 52 51 50 49 48 47 45 41 39 38 37 37 35 34 36 41 42 42 40 38 37 38 39 40 41 40 39 37 37 36 35 34 33 32 32 32 33 34 35 36 36 37 37 37 38 40 42 43 43 44 45 44 43 44 46 44 42 43 45 49 53 55 56 57 56 57 56 56 56 53 51 48 47 48 48 47 46 46 45
50 51 53 53 53 52 52 51 50 50 49 48 45 41 40 40 40 40 39 38 40 43 43 42 41 39 38 39 41 41 41 40 39 38 37 36 35 34 34 33 33 33 34 35 36 38 39 39 39 39 40 42 44 44 45 46 45 45 45 45 43 41 41 44 47 51 55 57 58 57 58 58 57 56 55 53 51 49 48 48 47 46 46 46 45
49 51 54 54 53 53 52 51 50 50 49 47 44 41 41 42 43 44 43 42 44 45 43 42 41 39 39 40 42 41 40 39 39 39 38 36 35 35 34 34 34 34 34 36 37 39 40 41 42 42 43 43 44 44 45 45 44 45 45 43 41 41 43 47 50 53 56 58 58 58 59 58 57 56 54 53 51 49 49 48 46 46 46 46 46
50 52 54 54 55 54 53 52 51 50 48 45 43 43 43 44 46 47 47 46 47 45 43 41 40 39 39 41 41 40 38 38 39 39 38 37 36 35 35 34 34 34 35 36 38 39 40 41 42 43 43 42 42 43 43 43 44 44 43 42 42 43 46 50 52 55 58 59 58 58 59 59 58 56 54 53 51 50 49 47 46 47 47 47 47
54 54 53 54 55 55 54 53 52 49 47 45 44 44 44 46 48 50 51 49 47 44 42 41 39 38 39 40 40 38 37 38 39 39 39 38 37 36 35 35 35 35 36 37 37 38 38 39 41 42 42 41 41 41 42 43 44 43 42 42 44 46 49 52 54 56 59 58 58 58 58 59 59 56 54 53 51 50 49 47 47 48 48 49 50
58 58 57 57 57 56 55 53 51 49 47 46 46 46 48 49 51 54 54 50 46 43 42 40 38 37 38 39 39 38 38 38 39 39 39 39 38 37 36 35 36 36 37 38 38 37 38 38 39 40 41 40 40 41 43 44 44 43 43 44 46 49 51 54 56 58 58 57 58 59 59 59 58 56 54 53 52 51 49 48 49 49 50 52 53
62 62 61 60 58 57 55 52 52 51 51 51 51 51 52 53 55 56 55 50 44 42 41 39 36 37 38 39 39 39 39 40 40 40 39 39 38 38 36 36 37 37 38 39 39 37 37 37 39 40 40 40 41 43 44 45 45 45 46 48 50 52 54 55 57 57 57 58 59 60 60 60 58 55 54 53 52 50 49 49 50 51 53 54 56
63 62 61 60 59 58 57 54 54 54 54 55 55 54 54 55 56 57 55 50 44 41 40 37 37 39 40 41 40 41 41 40 40 40 39 39 39 38 37 37 38 38 39 39 38 37 37 38 39 39 39 41 43 44 45 46 47 48 49 51 52 53 54 55 56 57 58 60 61 61 61 61 57 54 53 53 52 50 49 50 51 53 55 57 59
62 62 61 61 59 58 57 55 55 55 55 55 56 56 56 56 57 57 56 50 44 42 40 38 39 42 43 42 42 42 41 41 41 40 40 39 39 38 37 37 38 39 39 39 39 38 37 39 40 40 41 42 43 43 45 47 49 50 51 51 52 53 55 56 57 59 60 62 63 63 62 60 57 54 53 53 52 50 50 51 53 55 57 60 62
61 60 60 58 57 57 57 55 54 54 55 55 56 56 56 56 56 56 55 49 46 45 42 41 43 45 44 44 43 42 42 41 41 40 40 39 39 38 37 38 39 39 40 39 39 39 40 42 42 41 42 43 43 45 48 50 51 52 52 53 53 55 56 58 59 61 63 64 64 63 61 58 56 54 54 53 52 51 52 53 54 57 60 62 63
62 60 59 57 57 57 56 54 52 53 54 55 56 55 55 55 55 55 54 51 49 47 45 45 46 46 45 44 43 42 42 41 41 41 40 39 38 38 38 38 39 40 41 41 40 41 42 44 45 45 45 47 48 49 50 51 51 52 53 54 55 56 57 59 61 63 64 63 63 61 59 56 55 54 54 53 53 53 53 54 57 60 62 63 62
64 62 61 60 60 58 55 53 52 52 53 54 55 54 54 54 54 55 55 53 50 47 46 46 46 46 45 44 43 42 42 41 41 41 40 39 38 38 39 39 39 40 42 43 43 43 44 46 48 49 49 50 50 50 50 51 52 53 54 56 57 59 60 61 62 62 62 62 61 59 57 55 54 54 54 53 53 54 54 57 60 62 63 62 60
65 63 63 63 62 59 56 54 53 52 53 53 54 54 54 53 54 56 56 53 50 47 45 46 46 46 45 44 43 42 42 42 42 41 41 40 39 39 40 41 41 42 43 44 44 44 46 48 49 49 49 50 50 50 51 53 54 55 57 59 60 61 61 61 62 61 60 59 58 56 55 54 54 53 53 53 53 54 55 59 62 62 61 60 58
66 65 65 65 62 60 58 56 55 53 53 53 53 54 54 53 55 56 55 51 48 46 46 46 45 45 45 44 43 43 43 43 42 42 41 41 40 41 41 42 43 44 45 45 45 46 47 48 49 49 49 50 51 52 54 55 57 58 60 60 61 61 61 60 60 59 58 57 56 55 54 54 53 53 52 52 53 54 57 61 62 60 58 57 56
66 66 66 65 62 61 59 58 57 55 54 54 54 55 54 54 56 55 53 50 47 47 46 45 45 45 44 44 43 43 44 43 42 42 42 42 42 42 43 43 43 44 44 44 44 44 45 46 47 48 49 51 52 54 56 58 59 61 61 61 61 60 59 58 58 57 56 55 55 54 54 54 53 51 51 52 53 56 59 61 59 57 55 55 55
66 67 66 64 63 61 60 59 57 56 56 56 56 55 55 55 55 53 51 49 48 48 46 45 45 45 44 43 43 44 44 43 43 42 42 42 43 43 44 44 43 43 43 43 43 43 44 46 47 49 51 53 55 57 59 60 61 62 61 60 60 58 57 56 56 55 55 55 54 54 54 53 51 50 50 51 54 57 59 58 55 53 53 53 54
66 66 66 65 64 63 61 59 58 58 59 58 57 56 56 55 54 52 51 49 49 48 46 46 45 44 43 43 43 44 44 43 44 43 43 43 43 44 44 45 44 44 44 45 46 47 48 49 51 53 54 56 57 59 60 61 61 61 60 59 58 56 55 55 54 54 55 54 54 53 53 51 50 49 50 53 56 58 57 54 52 51 51 52 54
65 65 66 66 65 64 62 61 60 60 60 59 58 58 57 55 54 53 52 50 49 48 46 45 45 44 43 43 44 44 43 44 45 45 44 44 44 45 45 46 47 47 48 49 50 51 52 53 54 55 57 58 59 60 60 60 60 59 58 57 56 55 54 53 54 54 54 54 53 52 51 49 48 49 52 55 57 56 54 51 49 50 51 52 54
66 65 65 64 64 64 62 61 61 61 62 60 59 58 56 55 54 54 53 51 49 47 46 45 44 44 44 44 44 43 43 43 45 46 46 46 46 46 47 48 49 50 51 52 53 54 54 55 56 57 58 59 59 59 59 58 57 56 55 54 54 53 53 53 53 54 54 53 52 50 49 48 48 50 53 55 55 53 50 48 48 49 51 52 53
66 65 64 63 63 62 60 59 59 60 61 60 58 57 56 55 55 55 53 51 48 46 45 44 43 44 44 44 43 42 42 44 45 46 47 47 48 48 49 49 50 51 52 53 54 56 57 57 58 59 59 58 58 57 56 55 55 54 53 52 52 53 53 53 53 52 52 51 49 48 48 49 50 52 54 54 52 49 47 47 48 49 50 51 52
66 64 64 64 62 61 58 56 57 58 58 58 56 55 55 54 54 54 52 50 47 46 44 44 43 44 44 44 43 42 42 44 46 47 47 48 48 49 50 51 51 52 53 54 56 57 58 59 58 58 57 56 55 54 54 53 52 52 51 51 52 51 51 51 51 50 49 48 47 47 48 50 52 53 53 52 49 47 46 46 48 48 49 51 52
66 65 65 64 62 60 57 55 55 56 57 56 55 55 54 53 53 53 51 49 47 45 44 44 43 44 44 43 43 43 44 45 46 47 48 48 49 50 51 51 52 53 54 56 57 58 59 58 57 56 54 53 52 52 51 51 50 50 50 50 50 50 50 49 49 48 47 46 46 47 49 51 52 52 51 49 47 46 45 46 47 48 49 51 52
67 67 66 64 61 59 56 54 55 56 56 56 56 54 54 53 53 52 51 48 47 46 45 44 44 44 44 44 44 45 45 46 47 47 48 49 50 51 51 52 53 54 55 56 57 57 57 56 55 53 52 50 50 49 49 49 49 49 49 49 48 48 47 47 47 46 46 46 47 48 50 51 51 51 49 47 46 45 45 47 47 48 49 51 53
Wind_Direction
265 266 267 269 271 273 273 273 277 282 286 292 294 295 299 302 303 307 307 305 306 307 311 315 320 321 317 310 307 308 313 323 329 328 327 327 325 325 325 326 331 334 329 327 335 333 325 325 330 337 337 337 336 335 333 331 328 326 324 323 321 319 316 312 308 303 299 296 293 290 286 283 281 280 279 278 278 278 277 276 276 275 274 274 274
267 267 267 267 268 272 275 276 280 284 286 291 293 293 298 300 301 304 305 304 305 308 311 317 322 321 318 313 309 308 307 313 323 326 327 327 325 325 324 326 329 333 328 321 328 323 315 316 322 332 335 334 333 333 333 332 330 327 323 321 321 321 319 317 312 307 303 300 297 293 289 286 282 280 279 280 280 280 280 279 279 278 277 276 275
266 265 266 267 269 272 275 277 280 284 286 290 291 291 295 298 300 302 303 303 305 309 312 317 321 320 318 316 313 311 308 308 314 320 324 325 324 323 323 325 328 331 327 317 319 316 310 311 314 324 329 330 329 329 331 331 331 330 328 327 328 329 329 326 322 317 312 308 304 299 294 289 284 282 282 283 283 282 281 280 279 277 276 275 273
263 263 265 268 270 272 274 278 281 283 286 288 290 290 293 297 301 303 304 304 305 308 312 315 318 317 316 316 316 313 310 309 311 315 319 322 322 322 321 323 326 328 327 315 312 312 307 308 312 320 323 324 324 324 326 327 328 329 330 332 334 335 335 334 331 326 320 315 311 307 301 295 291 289 289 290 289 287 284 281 279 276 274 272 270
262 263 265 267 270 273 276 279 281 283 286 288 289 288 292 299 303 305 306 306 307 309 312 314 314 314 314 315 317 316 313 312 314 315 315 317 319 320 318 321 324 326 326 315 306 309 306 305 311 318 318 318 320 320 320 322 324 326 329 331 334 335 334 334 334 332 327 322 317 313 310 307 304 302 302 301 299 295 290 285 280 275 271 268 265
263 264 264 267 271 276 279 280 281 283 285 287 287 288 296 301 301 304 308 308 309 311 312 312 312 312 313 315 317 317 315 315 317 316 314 314 316 318 316 318 321 323 325 318 303 303 305 303 309 315 316 316 316 316 316 317 322 325 328 330 331 331 330 330 332 333 332 330 325 320 315 313 312 312 311 309 306 301 293 286 279 274 269 261 255
262 262 264 270 274 278 279 279 281 282 283 283 286 293 299 300 300 304 307 307 309 311 311 312 312 311 312 313 315 317 316 317 319 318 314 312 314 316 315 316 319 320 323 321 304 298 302 301 305 311 313 314 314 314 313 313 318 322 326 329 329 327 326 327 329 330 331 332 330 327 322 318 315 313 312 311 308 304 296 287 280 272 263 253 246
259 259 265 273 275 275 274 276 280 280 280 280 286 296 299 298 299 302 301 302 306 309 310 311 312 311 310 310 312 315 316 317 319 318 313 311 314 315 314 315 318 318 320 323 309 295 296 299 301 306 309 311 311 312 313 310 312 317 322 325 325 324 322 324 326 326 327 328 327 327 325 323 319 314 310 308 306 305 300 292 283 272 257 248 245
260 261 265 269 271 270 270 275 280 280 280 282 287 295 296 295 297 299 298 298 303 306 308 310 312 310 308 308 309 312 314 316 317 317 313 311 313 314 313 315 317 318 318 322 316 298 291 295 298 301 305 308 309 309 312 310 308 313 318 321 321 320 320 321 323 322 322 323 322 321 321 320 318 315 311 307 303 301 299 294 285 273 258 251 249
261 262 263 264 266 267 269 276 281 280 281 285 289 292 293 294 296 298 299 298 301 305 307 309 310 309 308 307 307 309 311 313 315 315 313 311 312 313 313 314 317 317 318 320 319 305 291 291 294 299 302 305 306 307 310 309 307 311 315 317 318 318 317 318 319 318 319 319 317 316 315 314 313 311 310 307 302 297 294 290 283 273 262 257 255
258 260 260 261 265 267 269 276 280 279 281 286 289 291 292 294 296 299 298 298 302 304 306 308 308 308 308 307 307 307 309 311 313 313 313 312 312 312 312 314 316 317 317 318 317 311 297 290 290 295 299 302 304 304 306 307 305 308 311 313 315 316 315 315 316 315 315 315 314 313 311 310 308 307 305 304 302 298 292 286 280 273 266 262 260
255 257 259 260 266 268 269 275 277 277 281 284 288 290 292 294 297 298 298 298 301 303 304 305 306 307 308 308 306 306 308 311 312 313 313 312 311 311 311 312 316 316 316 316 315 312 303 293 290 292 295 299 301 302 303 303 301 303 308 312 314 315 316 315 314 313 312 312 311 310 308 306 304 303 301 299 297 295 292 287 281 275 269 266 264
256 259 261 261 265 268 269 273 275 278 280 282 286 288 291 293 296 298 297 298 298 299 302 303 304 307 308 308 306 306 309 311 312 314 314 312 310 310 310 311 314 315 314 314 314 311 306 299 293 292 294 297 299 300 300 299 297 297 301 307 313 316 318 319 315 312 310 309 308 307 305 302 300 298 296 295 293 291 290 287 283 279 274 270 269
259 261 263 263 263 264 266 272 277 279 280 282 285 286 289 291 293 295 296 296 296 296 298 300 302 305 307 307 306 307 309 312 313 315 315 313 311 310 309 310 312 314 314 314 314 311 308 303 298 296 295 296 297 298 298 297 295 294 296 299 306 312 317 321 318 314 311 310 309 308 305 302 299 295 293 291 289 288 287 286 284 282 279 277 275
259 261 264 263 260 262 267 273 279 279 281 283 285 286 287 288 290 293 293 293 293 293 295 298 300 303 305 306 306 307 310 312 314 315 315 313 311 310 308 309 310 312 314 314 314 310 307 304 301 298 296 296 296 298 298 296 294 294 295 297 303 309 315 319 318 317 316 315 313 311 309 305 302 299 295 291 287 284 283 283 282 282 281 280 279
259 261 262 260 258 261 268 275 278 279 281 283 286 287 287 288 290 291 292 292 292 291 293 296 299 302 304 304 306 307 309 312 314 315 314 312 310 309 307 307 308 310 313 314 313 310 307 304 301 297 295 294 294 296 296 296 295 295 297 300 305 310 315 317 316 318 319 318 318 316 314 311 308 306 302 297 291 286 283 281 280 279 280 280 280
259 261 259 256 257 261 268 274 276 277 279 282 286 287 288 290 290 292 294 293 292 290 291 294 298 302 304 304 306 307 309 312 314 315 314 311 309 307 305 304 305 307 310 312 312 310 307 305 302 299 297 295 294 294 294 295 296 298 300 303 308 313 314 313 314 318 320 321 322 321 320 318 315 313 309 305 299 293 288 284 281 278 277 278 279
258 260 256 254 257 262 268 271 272 274 276 280 284 284 287 291 292 294 294 294 292 290 290 292 298 303 303 304 306 308 310 313 314 314 313 310 307 304 302 301 302 304 308 310 311 310 307 306 304 302 300 298 297 296 296 296 297 299 301 305 310 312 311 311 313 316 320 324 325 324 323 322 320 316 312 308 303 298 292 288 286 282 279 278 277
256 257 255 255 258 262 266 268 269 272 275 279 282 282 286 290 293 294 293 293 291 288 288 291 298 303 304 305 307 309 311 313 314 313 311 308 305 302 299 299 300 302 305 307 309 308 306 304 303 301 300 300 299 299 298 297 298 299 301 306 310 311 311 312 313 315 319 324 326 327 325 324 322 318 313 308 304 299 292 288 286 285 282 280 279
252 253 253 254 258 260 263 265 267 271 275 278 279 281 285 290 292 293 291 290 288 286 287 290 295 301 307 309 309 309 311 313 313 312 310 307 303 300 298 297 298 300 302 304 305 305 304 303 302 301 300 299 298 298 298 298 300 300 301 305 308 310 314 315 315 316 320 325 327 327 326 324 322 318 313 310 306 301 295 289 286 285 284 282 282
250 251 250 252 255 258 261 263 266 270 273 275 276 279 284 289 291 290 290 288 285 284 286 289 292 296 306 312 311 310 310 311 312 311 309 306 302 299 296 296 297 298 300 301 302 303 302 302 301 299 300 300 298 297 298 300 302 302 301 302 304 310 317 318 317 318 322 326 326 326 325 324 322 318 314 311 308 305 300 295 290 286 285 284 284
249 251 250 251 253 256 260 263 265 267 270 272 274 278 283 289 289 286 286 285 283 283 285 289 292 295 304 312 312 309 309 310 311 310 307 305 301 298 295 295 296 297 298 299 299 299 300 300 299 298 298 299 299 298 299 301 304 304 302 299 300 309 317 319 316 318 322 324 324 324 323 323 322 318 314 310 308 306 305 302 297 293 289 287 286
248 251 252 252 255 257 259 261 263 265 267 269 273 278 284 288 286 281 281 281 281 282 286 291 295 298 305 311 310 307 308 309 310 309 306 304 301 297 295 294 295 296 297 297 297 298 299 298 296 296 297 298 299 298 298 301 304 304 301 297 299 308 316 318 315 318 322 322 322 322 322 322 321 318 314 310 307 306 306 305 304 300 297 293 290
246 250 253 254 255 256 258 260 261 263 265 269 274 280 285 286 282 276 275 277 280 283 287 294 300 302 305 309 307 305 306 308 309 308 304 302 300 296 294 293 294 295 295 296 297 298 298 296 295 295 296 299 299 297 298 300 302 303 298 293 298 306 313 316 314 317 321 321 321 321 321 321 321 318 314 311 307 305 305 305 305 304 301 298 295
245 248 251 253 254 255 257 259 261 263 266 270 275 281 285 282 277 273 272 275 278 282 289 298 304 305 306 306 304 303 306 308 308 305 302 300 298 295 293 293 293 294 295 295 297 297 296 294 294 294 296 298 297 296 298 299 300 300 294 290 295 302 309 313 313 316 319 319 319 319 319 320 321 318 314 311 307 305 305 306 306 305 302 300 298
244 247 249 251 252 254 257 259 261 264 267 271 275 280 281 277 274 274 274 276 276 282 293 302 306 306 304 303 301 303 306 307 305 302 300 298 297 294 292 292 292 293 294 295 297 296 293 291 292 293 295 296 296 295 297 298 298 297 292 289 292 298 305 309 310 313 317 317 317 317 318 319 320 318 315 312 308 306 305 306 307 305 303 300 298
241 245 247 249 251 254 256 259 261 264 267 270 274 278 277 275 274 275 278 278 280 287 297 303 305 305 302 299 299 302 304 304 303 300 297 297 295 293 291 291 291 292 294 295 296 295 291 289 291 293 294 296 294 294 297 298 298 295 293 292 293 296 301 306 307 311 315 315 316 316 317 318 318 317 315 312 309 306 306 306 306 305 304 301 299
241 243 245 247 250 254 256 259 261 263 266 269 273 275 274 274 275 276 280 283 288 295 299 301 302 302 300 298 298 300 303 302 300 297 296 295 294 292 291 290 290 291 293 295 296 295 292 291 292 294 295 294 294 294 297 299 299 296 294 294 294 295 298 302 303 309 314 315 315 314 316 317 317 316 314 312 309 306 305 305 305 305 305 304 303
243 244 245 248 250 254 257 259 261 263 266 269 273 273 272 275 276 277 281 287 294 297 298 298 298 300 299 297 298 300 301 300 298 295 294 294 293 292 291 290 290 291 293 294 295 295 294 294 294 294 294 293 292 294 296 298 299 296 294 294 294 294 296 298 300 307 312 313 313 313 315 316 316 315 313 311 309 306 305 305 306 306 305 306 306
242 243 246 249 252 255 257 259 262 264 267 270 272 272 272 275 276 277 281 288 295 297 296 296 295 297 297 296 298 299 299 298 296 294 293 293 292 292 291 291 290 290 292 293 293 294 294 294 294 293 292 291 292 293 296 298 298 297 296 296 295 294 295 297 299 305 310 311 311 312 314 316 315 313 311 310 309 307 306 306 307 308 307 306 306
240 243 247 251 254 256 258 260 262 265 268 269 270 272 273 274 276 277 280 287 294 295 294 294 294 294 295 296 297 297 297 295 294 293 292 292 291 290 290 290 291 291 292 292 292 292 292 292 292 291 290 290 291 293 296 298 299 298 298 298 296 295 295 296 298 302 307 309 309 312 315 316 315 312 310 309 309 308 307 307 307 309 309 308 307
241 244 249 252 254 256 258 260 262 265 267 268 269 272 273 274 275 276 279 285 291 292 293 294 293 292 293 294 295 295 295 293 292 292 292 291 290 289 289 290 291 291 291 291 291 291 291 291 291 290 289 289 291 294 297 298 298 298 298 298 297 295 294 295 297 301 305 307 309 313 315 316 314 311 309 309 309 308 308 307 307 308 309 309 308
241 245 250 252 254 256 257 259 262 265 267 268 270 272 272 272 273 275 278 284 288 290 292 293 291 291 292 292 293 294 294 292 291 291 291 290 289 289 289 289 290 290 290 290 290 291 292 292 291 289 289 291 294 297 298 298 297 298 298 298 297 295 294 295 297 301 305 307 310 313 314 314 313 310 309 309 308 308 307 307 307 308 308 308 309
241 245 248 250 253 255 257 259 261 263 265 265 267 268 269 270 272 275 279 283 286 289 293 291 288 289 290 291 292 293 293 292 290 289 289 289 289 289 290 290 290 290 290 289 289 291 294 293 290 289 291 293 295 297 299 299 300 300 300 298 295 294 295 296 299 302 305 307 310 312 313 313 312 309 308 308 308 308 307 307 308 308 308 309 310
241 244 247 249 252 254 256 258 259 260 261 262 264 267 269 271 274 276 279 282 284 289 292 287 285 287 289 291 291 292 292 291 289 289 288 288 289 289 290 291 291 291 291 290 289 290 294 293 290 289 291 293 295 298 301 303 303 302 300 296 295 295 296 298 300 302 304 307 310 312 312 312 310 308 307 308 308 308 307 307 308 308 309 310 311
240 242 245 248 251 253 256 257 258 259 259 260 263 266 269 271 273 275 278 281 283 290 289 282 283 287 288 290 290 291 291 290 288 288 288 288 289 290 291 291 291 292 292 292 291 290 293 294 291 289 290 293 297 301 302 303 301 300 298 296 296 298 300 301 302 303 305 309 311 312 312 311 309 308 307 307 307 307 306 307 308 309 310 311 312
240 241 243 246 250 254 256 257 258 259 260 260 262 265 268 271 273 274 277 279 283 289 284 278 282 286 287 289 289 290 290 288 288 287 288 287 288 290 291 291 292 293 293 293 293 291 293 295 292 290 291 294 297 298 299 299 299 299 299 299 301 302 304 304 304 306 308 310 311 312 311 309 308 308 307 307 307 306 306 308 310 311 312 314 315
239 241 243 246 250 253 256 257 258 259 261 262 264 266 268 270 272 274 276 279 284 287 280 276 282 285 286 288 288 289 288 288 287 287 287 287 288 290 291 291 292 293 293 293 293 292 292 294 293 291 292 293 294 295 296 298 299 300 301 302 303 304 305 306 307 308 310 311 310 310 309 308 308 308 307 307 307 307 308 310 312 313 315 316 316
240 241 244 246 249 252 255 256 258 259 261 262 264 266 267 269 272 274 277 280 284 284 278 276 281 284 285 286 288 288 287 287 287 287 287 287 288 290 290 291 292 293 293 292 291 290 290 291 291 290 291 293 295 296 298 299 299 300 300 302 303 304 305 307 308 309 309 309 308 308 308 308 308 308 307 307 307 308 310 312 314 315 316 316 316
241 243 245 247 249 251 253 256 257 258 259 260 262 264 266 268 271 275 278 281 282 281 277 277 280 283 284 285 286 286 286 286 286 286 287 288 289 290 290 291 292 292 292 292 291 289 289 289 289 290 292 294 296 298 299 300 300 300 301 303 304 305 306 307 307 308 307 307 306 307 307 307 307 307 307 307 308 310 312 314 315 316 317 317 317
242 243 245 247 249 250 252 255 256 257 258 259 261 263 265 268 272 275 278 280 280 278 276 277 280 282 282 283 284 285 285 285 286 286 286 287 289 290 290 291 292 292 291 291 291 290 290 290 291 292 294 295 297 298 298 299 300 301 303 304 305 306 307 307 307 306 305 305 305 305 306 306 306 306 306 307 309 311 313 315 316 317 317 318 319
241 243 244 246 248 249 251 252 254 255 257 259 260 262 265 269 273 276 277 277 276 275 275 277 279 280 280 281 283 283 284 284 284 285 285 287 288 289 289 290 291 292 292 292 291 291 291 291 292 293 293 294 295 296 297 299 301 303 304 305 306 306 306 306 305 304 304 304 304 304 305 305 305 306 307 309 310 312 314 316 317 317 317 318 320
242 244 246 247 248 249 250 251 253 255 257 259 261 264 267 271 273 274 274 273 273 274 275 277 278 278 278 280 281 282 283 282 282 283 284 286 287 288 289 290 292 293 292 292 292 292 291 291 291 291 292 292 294 295 297 300 302 303 304 305 305 304 304 304 303 303 303 303 303 303 303 303 304 306 308 310 311 313 315 317 317 317 318 319 320
243 245 247 248 249 249 250 251 253 255 257 260 262 265 268 271 272 271 271 271 272 274 275 276 276 276 277 278 280 281 282 281 281 281 282 284 286 288 289 291 293 293 292 292 292 292 291 290 290 291 292 293 295 297 299 301 302 303 303 303 303 303 303 303 302 302 302 302 303 303 303 304 305 307 309 310 312 315 316 317 317 317 318 319 319
241 243 244 246 247 249 251 253 254 255 257 259 262 265 268 269 268 268 269 271 272 274 275 275 274 274 275 276 279 281 280 280 281 281 281 283 285 286 288 290 291 290 290 290 290 290 291 291 291 292 294 296 297 299 300 301 301 302 302 302 302 303 303 302 302 301 301 302 302 303 304 305 307 309 310 311 313 316 317 316 316 317 318 318 318
240 241 241 243 246 248 250 252 253 254 256 259 261 264 265 265 265 266 268 270 272 274 274 273 273 273 274 276 278 279 279 280 281 281 282 283 284 285 286 288 288 288 288 289 290 290 291 292 293 295 296 297 298 300 300 301 301 301 301 301 302 302 302 302 301 301 301 302 303 304 305 306 308 309 310 312 315 316 316 316 316 316 317 317 318
240 241 242 243 245 247 249 250 252 254 256 258 260 261 261 262 263 266 268 270 272 272 272 272 272 272 273 276 276 276 278 280 281 281 283 284 285 286 286 287 287 288 289 290 291 292 292 293 295 296 297 298 299 300 300 300 300 300 301 301 301 302 302 301 301 301 302 303 304 305 306 307 309 310 311 314 316 316 315 315 315 316 316 317 318
239 241 242 243 244 246 248 249 251 253 254 256 257 258 259 261 263 265 267 269 270 270 270 270 271 272 273 274 274 274 277 279 280 282 283 285 286 287 288 288 289 289 290 292 293 293 294 295 296 297 298 299 299 299 299 299 299 300 301 301 301 302 301 301 301 302 302 303 304 306 307 308 309 311 313 315 316 315 314 314 315 315 316 317 319
239 240 241 242 243 245 247 248 249 250 252 254 255 257 259 261 263 265 267 268 269 269 269 270 270 271 272 272 271 273 277 279 281 282 284 285 287 288 289 290 291 291 292 293 293 294 295 295 296 297 298 298 298 298 298 299 299 300 301 301 301 301 301 301 302 302 303 304 305 307 307 308 310 312 314 315 314 314 314 314 314 315 316 318 320
238 239 241 242 244 245 245 246 247 249 252 254 255 257 259 260 262 264 266 267 267 268 268 269 270 271 271 270 270 274 278 280 281 282 283 285 287 289 290 290 291 292 292 293 293 294 295 295 296 297 298 298 298 298 298 299 300 301 301 301 301 301 301 302 302 303 304 305 306 307 307 308 311 313 314 314 313 314 314 314 314 314 316 318 320
238 240 242 243 244 244 243 244 247 249 251 253 254 256 258 259 261 263 264 266 266 267 268 269 269 270 269 268 271 275 278 280 281 281 283 285 287 289 289 290 291 291 292 293 294 295 295 296 298 298 298 298 298 298 299 301 302 302 301 301 301 301 302 303 303 304 306 307 307 307 307 309 311 313 313 313 313 313 313 313 314 314 316 318 320
Height
10882 10882 10882 10883 10883 10884 10884 10885 10886 10886 10887 10887 10888 10888 10887 10886 10885 10884 10883 10882 10881 10880 10879 10878 10878 10877 10877 10876 10875 10874 10873 10871 10870 10868 10866 10865 10863 10862 10861 10859 10858 10856 10855 10854 10853 10852 10851 10851 10849 10848 10846 10845 10843 10842 10840 10838 10836 10835 10833 10832 10831 10830 10830 10829 10828 10828 10827 10826 10825 10824 10823 10822 10821 10821 10820 10819 10819 10819 10819 10819 10818 10818 10818 10818 10818
10879 10879 10879 10880 10881 10881 10882 10883 10884 10884 10885 10885 10886 10886 10886 10885 10884 10883 10882 10880 10879 10878 10877 10877 10876 10876 10875 10874 10873 10873 10871 10870 10869 10868 10866 10864 10862 10861 10859 10858 10857 10856 10854 10854 10853 10852 10851 10850 10849 10847 10846 10844 10843 10841 10839 10838 10836 10834 10833 10831 10830 10830 10829 10828 10827 10826 10825 10824 10823 10822 10821 10821 10820 10819 10818 10818 10818 10817 10817 10817 10816 10816 10816 10816 10815
10876 10877 10877 10878 10878 10879 10880 10881 10881 10882 10883 10883 10884 10884 10884 10883 10882 10881 10880 10879 10877 10876 10875 10875 10875 10874 10874 10873 10872 10871 10870 10869 10868 10867 10865 10863 10861 10860 10858 10857 10856 10854 10853 10853 10852 10851 10850 10849 10848 10846 10845 10844 10842 10840 10839 10837 10835 10834 10832 10831 10830 10830 10828 10827 10826 10825 10823 10823 10822 10821 10820 10819 10818 10817 10817 10817 10816 10816 10815 10815 10814 10814 10814 10813 10813
10874 10875 10875 10875 10876 10877 10878 10878 10879 10880 10880 10881 10882 10882 10882 10881 10880 10879 10877 10877 10876 10874 10873 10873 10873 10872 10872 10871 10870 10869 10868 10867 10866 10865 10864 10863 10861 10859 10857 10856 10854 10853 10852 10851 10851 10850 10849 10848 10847 10845 10844 10843 10841 10839 10838 10836 10835 10833 10832 10831 10830 10829 10828 10826 10825 10823 10822 10821 10820 10819 10818 10817 10817 10816 10816 10815 10815 10814 10814 10813 10812 10812 10812 10811 10811
10872 10873 10873 10873 10874 10874 10875 10876 10877 10878 10878 10878 10879 10880 10880 10879 10878 10877 10875 10874 10874 10873 10872 10872 10871 10870 10869 10869 10868 10867 10866 10865 10864 10863 10863 10861 10860 10858 10857 10855 10853 10852 10851 10850 10849 10849 10848 10847 10846 10844 10842 10841 10840 10839 10837 10836 10835 10833 10832 10831 10830 10828 10827 10825 10824 10823 10821 10820 10819 10818 10817 10817 10816 10815 10815 10814 10814 10813 10812 10811 10811 10810 10810 10809 10809
10870 10871 10871 10871 10871 10872 10873 10874 10875 10875 10876 10876 10877 10877 10878 10877 10877 10876 10874 10873 10872 10872 10871 10870 10869 10868 10868 10867 10866 10865 10864 10863 10862 10861 10860 10859 10858 10857 10856 10854 10852 10851 10850 10849 10848 10847 10847 10846 10845 10843 10841 10840 10839 10838 10837 10836 10834 10833 10832 10830 10829 10827 10826 10824 10823 10822 10821 10819 10818 10817 10817 10816 10815 10814 10814 10813 10812 10811 10811 10810 10809 10808 10808 10807 10807
10868 10869 10869 10869 10869 10870 10870 10871 10873 10873 10874 10874 10874 10875 10875 10875 10875 10874 10873 10871 10871 10870 10870 10869 10868 10867 10866 10865 10864 10863 10862 10861 10860 10859 10858 10857 10856 10855 10854 10852 10851 10850 10849 10848 10847 10846 10846 10845 10843 10842 10840 10839 10837 10836 10836 10835 10834 10833 10831 10830 10828 10826 10825 10824 10823 10821 10820 10819 10818 10817 10816 10815 10814 10813 10812 10812 10811 10810 10809 10808 10807 10806 10806 10805 10804
10866 10866 10867 10867 10867 10868 10868 10869 10870 10871 10872 10872 10872 10872 10873 10873 10873 10873 10872 10871 10869 10869 10868 10868 10867 10866 10864 10863 10862 10861 10860 10859 10858 10857 10857 10855 10854 10853 10852 10851 10849 10848 10847 10846 10845 10845 10844 10843 10842 10841 10839 10837 10836 10835 10835 10834 10833 10832 10831 10829 10827 10825 10824 10824 10823 10821 10820 10819 10817 10816 10815 10814 10813 10812 10811 10810 10809 10808 10807 10806 10805 10805 10804 10803 10803
10863 10864 10865 10865 10866 10866 10866 10867 10868 10869 10869 10869 10870 10870 10870 10871 10871 10871 10871 10870 10868 10867 10867 10866 10865 10864 10863 10862 10861 10860 10859 10858 10857 10856 10855 10854 10852 10851 10850 10849 10848 10847 10846 10845 10844 10843 10843 10842 10841 10840 10838 10836 10835 10834 10833 10833 10832 10831 10830 10828 10826 10824 10823 10823 10823 10821 10819 10818 10817 10815 10814 10813 10812 10811 10810 10809 10808 10807 10806 10805 10804 10803 10803 10802 10801
10860 10861 10863 10863 10864 10864 10864 10865 10866 10867 10867 10867 10867 10868 10868 10868 10869 10870 10869 10868 10867 10866 10865 10864 10864 10863 10861 10860 10859 10858 10857 10856 10855 10854 10853 10852 10850 10849 10849 10848 10846 10845 10844 10843 10842 10841 10841 10840 10839 10838 10837 10835 10833 10832 10832 10831 10830 10829 10828 10826 10825 10824 10822 10821 10821 10820 10819 10818 10816 10815 10814 10812 10811 10810 10809 10808 10807 10806 10805 10804 10803 10802 10801 10800 10799
10857 10858 10860 10861 10861 10861 10862 10863 10864 10865 10865 10865 10865 10865 10865 10866 10867 10867 10868 10867 10865 10864 10863 10862 10861 10861 10859 10858 10857 10856 10855 10854 10853 10852 10851 10850 10849 10847 10847 10846 10845 10843 10842 10841 10840 10839 10839 10838 10838 10836 10835 10833 10832 10830 10830 10829 10828 10827 10826 10825 10824 10824 10822 10821 10820 10819 10818 10817 10815 10814 10813 10811 10810 10809 10808 10807 10806 10805 10804 10802 10801 10800 10799 10798 10797
10854 10855 10857 10858 10859 10859 10860 10861 10862 10862 10862 10863 10863 10863 10863 10864 10864 10865 10865 10865 10864 10862 10861 10860 10860 10858 10857 10856 10855 10854 10853 10852 10852 10851 10849 10848 10847 10846 10845 10844 10843 10842 10841 10839 10838 10837 10837 10836 10836 10835 10833 10831 10830 10829 10828 10827 10826 10825 10824 10823 10822 10822 10822 10820 10819 10818 10817 10816 10814 10813 10812 10810 10809 10808 10806 10805 10804 10803 10802 10801 10800 10799 10798 10796 10795
10851 10853 10854 10856 10857 10857 10858 10859 10860 10860 10860 10860 10861 10861 10861 10862 10862 10862 10863 10863 10862 10860 10859 10858 10858 10856 10855 10854 10853 10852 10851 10851 10850 10849 10848 10846 10845 10844 10843 10842 10841 10840 10839 10838 10837 10836 10835 10834 10834 10833 10831 10830 10828 10827 10826 10825 10824 10823 10822 10821 10820 10820 10820 10819 10818 10817 10816 10814 10813 10812 10810 10809 10808 10806 10805 10803 10802 10800 10799 10798 10797 10796 10795 10794 10793
10849 10850 10851 10853 10854 10855 10855 10856 10857 10858 10858 10858 10859 10859 10859 10860 10860 10860 10860 10860 10860 10859 10857 10856 10855 10854 10853 10852 10851 10850 10849 10849 10848 10847 10846 10845 10843 10842 10841 10840 10839 10838 10837 10836 10835 10834 10833 10833 10832 10831 10829 10827 10826 10825 10824 10823 10822 10821 10820 10818 10818 10818 10817 10816 10815 10814 10814 10812 10811 10810 10808 10807 10806 10804 10803 10801 10799 10797 10796 10795 10794 10792 10791 10791 10790
10846 10848 10849 10850 10851 10852 10853 10853 10855 10855 10855 10856 10857 10857 10857 10857 10858 10858 10858 10858 10857 10857 10855 10854 10853 10852 10851 10850 10849 10848 10848 10847 10846 10845 10844 10843 10841 10840 10839 10838 10837 10836 10835 10834 10833 10832 10832 10831 10830 10829 10827 10825 10824 10823 10822 10820 10820 10819 10818 10816 10816 10816 10815 10814 10812 10811 10810 10809 10808 10807 10806 10804 10803 10801 10800 10798 10796 10795 10793 10791 10790 10789 10788 10787 10785
10842 10845 10846 10847 10848 10849 10850 10850 10851 10852 10853 10854 10854 10855 10855 10855 10855 10855 10855 10855 10854 10854 10853 10852 10851 10850 10848 10848 10847 10846 10846 10845 10844 10842 10841 10840 10839 10838 10837 10836 10835 10834 10833 10832 10831 10830 10830 10829 10828 10827 10825 10823 10821 10821 10820 10818 10818 10817 10816 10814 10813 10813 10812 10811 10810 10809 10807 10806 10805 10804 10802 10801 10800 10798 10796 10795 10793 10791 10790 10788 10787 10785 10784 10783 10781
10838 10841 10843 10845 10846 10847 10847 10847 10848 10850 10851 10852 10852 10853 10853 10853 10853 10853 10852 10852 10851 10851 10851 10850 10848 10847 10846 10846 10845 10844 10844 10843 10841 10840 10839 10838 10837 10836 10835 10834 10833 10832 10831 10830 10829 10828 10828 10827 10826 10824 10823 10821 10819 10818 10817 10816 10816 10815 10813 10811 10811 10811 10809 10808 10807 10806 10804 10803 10801 10800 10799 10797 10796 10794 10793 10791 10789 10787 10786 10784 10783 10782 10780 10779 10777
10834 10837 10840 10842 10843 10844 10844 10845 10846 10847 10848 10849 10850 10850 10850 10850 10850 10850 10849 10849 10848 10848 10848 10848 10846 10845 10844 10844 10843 10843 10842 10841 10839 10838 10837 10836 10835 10834 10833 10832 10831 10830 10829 10828 10827 10826 10825 10824 10823 10822 10821 10819 10817 10815 10815 10814 10814 10813 10811 10809 10809 10808 10807 10805 10804 10803 10801 10800 10798 10797 10795 10794 10792 10790 10788 10786 10785 10783 10781 10780 10779 10777 10776 10775 10773
10830 10833 10837 10839 10840 10841 10841 10842 10843 10844 10845 10846 10847 10848 10848 10848 10848 10847 10846 10846 10845 10845 10845 10845 10845 10843 10842 10842 10841 10841 10840 10839 10837 10836 10835 10833 10832 10831 10831 10830 10829 10828 10827 10826 10825 10824 10823 10822 10821 10819 10818 10817 10815 10813 10812 10812 10812 10811 10809 10807 10806 10806 10805 10803 10801 10800 10798 10797 10795 10793 10792 10790 10788 10786 10783 10781 10779 10778 10776 10775 10774 10772 10771 10770 10768
10827 10829 10833 10836 10837 10838 10838 10839 10840 10841 10842 10843 10844 10845 10845 10845 10845 10844 10843 10843 10843 10843 10843 10843 10842 10841 10840 10840 10839 10838 10838 10837 10835 10834 10832 10831 10830 10829 10828 10827 10826 10825 10824 10823 10822 10821 10820 10819 10818 10817 10816 10815 10813 10811 10810 10809 10809 10809 10807 10805 10804 10804 10803 10801 10799 10797 10795 10793 10791 10789 10787 10786 10784 10781 10779 10777 10774 10772 10771 10770 10768 10767 10766 10765 10763
10824 10826 10829 10832 10834 10835 10836 10836 10837 10838 10839 10840 10841 10842 10843 10843 10842 10841 10840 10840 10840 10840 10841 10840 10840 10839 10838 10838 10837 10836 10835 10834 10833 10831 10830 10828 10827 10827 10826 10825 10824 10823 10822 10821 10820 10819 10818 10817 10816 10814 10813 10812 10811 10809 10808 10807 10807 10806 10804 10803 10802 10801 10800 10798 10796 10794 10792 10790 10788 10786 10784 10782 10779 10777 10775 10773 10770 10768 10766 10765 10763 10761 10760 10759 10758
10821 10822 10824 10828 10830 10832 10833 10833 10834 10835 10836 10837 10839 10840 10840 10840 10839 10839 10838 10837 10838 10838 10838 10838 10837 10836 10836 10835 10834 10833 10832 10832 10830 10829 10827 10826 10825 10824 10823 10822 10822 10821 10820 10819 10818 10817 10815 10815 10813 10811 10810 10810 10809 10807 10805 10805 10804 10803 10802 10801 10799 10798 10797 10795 10794 10792 10790 10787 10785 10783 10781 10778 10776 10773 10771 10769 10767 10765 10763 10761 10759 10757 10755 10754 10752
10818 10818 10820 10823 10826 10829 10830 10830 10831 10832 10834 10835 10836 10837 10837 10837 10836 10836 10835 10835 10835 10835 10835 10835 10834 10833 10833 10833 10832 10831 10830 10829 10828 10827 10825 10824 10822 10822 10821 10820 10819 10818 10817 10816 10815 10814 10813 10812 10810 10808 10808 10807 10806 10804 10803 10802 10802 10801 10799 10798 10797 10796 10794 10792 10791 10789 10787 10784 10782 10780 10778 10775 10773 10770 10768 10766 10763 10761 10760 10758 10755 10753 10750 10748 10746
10814 10815 10816 10820 10823 10825 10826 10827 10828 10829 10831 10832 10833 10834 10834 10834 10833 10833 10832 10832 10833 10833 10833 10832 10831 10830 10830 10830 10829 10828 10827 10826 10826 10824 10823 10821 10820 10819 10818 10817 10816 10815 10814 10813 10812 10811 10810 10809 10808 10806 10805 10804 10803 10801 10800 10800 10799 10798 10797 10796 10794 10793 10791 10789 10787 10785 10783 10781 10779 10776 10774 10772 10769 10767 10764 10762 10759 10757 10755 10754 10751 10748 10746 10743 10741
10810 10812 10814 10817 10820 10821 10823 10824 10825 10826 10827 10829 10830 10831 10831 10830 10830 10830 10830 10830 10830 10831 10830 10829 10828 10827 10827 10827 10826 10826 10825 10824 10823 10821 10820 10819 10817 10816 10815 10814 10814 10813 10812 10810 10809 10808 10807 10806 10805 10803 10802 10801 10800 10798 10797 10797 10797 10795 10794 10793 10791 10790 10788 10786 10784 10782 10780 10777 10775 10773 10770 10768 10766 10763 10761 10758 10755 10752 10751 10749 10746 10743 10741 10738 10736
10806 10809 10811 10814 10816 10817 10819 10820 10822 10823 10824 10826 10827 10828 10828 10827 10827 10827 10827 10827 10828 10828 10827 10826 10825 10824 10824 10824 10823 10823 10823 10822 10820 10819 10817 10816 10815 10814 10813 10812 10811 10810 10809 10808 10806 10805 10804 10803 10802 10801 10799 10799 10797 10795 10794 10795 10794 10792 10791 10789 10788 10786 10785 10783 10781 10779 10776 10774 10772 10769 10766 10764 10762 10759 10757 10754 10751 10748 10746 10744 10741 10738 10736 10734 10731
10803 10805 10808 10810 10811 10813 10815 10817 10818 10819 10821 10822 10824 10824 10824 10824 10824 10824 10824 10824 10825 10825 10824 10823 10823 10822 10821 10821 10820 10820 10820 10819 10818 10816 10814 10813 10812 10811 10810 10809 10808 10807 10806 10805 10803 10802 10801 10800 10799 10798 10797 10795 10793 10792 10791 10791 10791 10789 10788 10786 10784 10783 10781 10779 10777 10775 10773 10770 10768 10765 10763 10761 10758 10756 10753 10750 10747 10744 10741 10740 10737 10734 10731 10729 10726
10799 10801 10803 10806 10808 10809 10811 10813 10814 10816 10817 10819 10820 10821 10821 10820 10820 10820 10820 10821 10822 10822 10821 10821 10820 10819 10818 10818 10817 10817 10817 10816 10815 10813 10812 10810 10809 10808 10807 10806 10806 10805 10803 10802 10800 10799 10797 10796 10796 10795 10794 10792 10790 10788 10788 10788 10787 10785 10784 10783 10781 10780 10778 10776 10774 10771 10769 10766 10764 10762 10759 10757 10755 10752 10749 10746 10743 10740 10738 10735 10733 10730 10727 10724 10722
10794 10796 10799 10802 10804 10806 10808 10809 10810 10812 10814 10815 10817 10817 10817 10817 10817 10817 10817 10818 10819 10819 10818 10818 10817 10816 10815 10815 10814 10814 10813 10812 10812 10810 10809 10808 10807 10805 10804 10803 10803 10802 10801 10799 10797 10795 10794 10793 10793 10792 10791 10788 10786 10785 10785 10784 10783 10782 10781 10779 10777 10776 10774 10772 10770 10767 10765 10762 10760 10758 10756 10753 10751 10748 10745 10742 10739 10737 10734 10731 10728 10726 10723 10720 10717
10789 10791 10794 10798 10801 10803 10805 10806 10807 10809 10810 10812 10813 10814 10814 10814 10813 10813 10813 10814 10816 10816 10815 10814 10813 10812 10812 10811 10811 10810 10810 10809 10808 10807 10806 10805 10804 10802 10801 10800 10800 10799 10798 10796 10794 10792 10790 10790 10789 10789 10787 10785 10783 10783 10782 10781 10779 10778 10777 10775 10773 10771 10770 10768 10766 10763 10761 10758 10756 10754 10751 10749 10747 10744 10741 10738 10735 10732 10729 10726 10724 10721 10718 10715 10712
10785 10787 10790 10794 10797 10800 10802 10803 10804 10805 10807 10809 10810 10810 10810 10810 10809 10809 10810 10811 10813 10812 10811 10811 10810 10809 10809 10808 10807 10807 10807 10806 10804 10804 10803 10802 10801 10800 10798 10797 10797 10796 10795 10792 10791 10789 10787 10786 10786 10785 10783 10782 10781 10780 10778 10777 10776 10774 10773 10771 10769 10767 10766 10764 10762 10760 10757 10755 10752 10749 10746 10744 10741 10740 10737 10734 10731 10728 10725 10722 10719 10716 10713 10710 10707
10782 10783 10787 10790 10793 10796 10799 10800 10800 10802 10804 10805 10806 10807 10807 10807 10806 10805 10806 10809 10810 10809 10808 10807 10806 10806 10805 10805 10804 10804 10804 10803 10801 10800 10800 10799 10798 10797 10796 10795 10794 10793 10791 10789 10787 10786 10784 10783 10782 10780 10779 10779 10778 10777 10776 10774 10773 10771 10770 10768 10766 10764 10762 10760 10758 10756 10754 10751 10748 10744 10741 10738 10736 10734 10732 10729 10726 10723 10720 10717 10715 10712 10708 10705 10702
10779 10781 10784 10786 10788 10792 10795 10796 10797 10798 10800 10802 10803 10803 10803 10803 10803 10802 10802 10805 10807 10806 10804 10803 10803 10802 10802 10801 10800 10801 10800 10799 10798 10797 10796 10795 10795 10794 10793 10792 10791 10790 10788 10786 10784 10783 10782 10780 10778 10776 10775 10775 10774 10773 10772 10771 10770 10768 10766 10765 10763 10761 10759 10756 10754 10752 10749 10746 10744 10741 10738 10734 10731 10729 10726 10724 10721 10718 10715 10712 10709 10706 10703 10700 10698
10776 10778 10780 10781 10784 10788 10790 10792 10793 10795 10797 10798 10799 10799 10799 10799 10799 10798 10798 10802 10804 10802 10801 10800 10799 10799 10798 10797 10797 10797 10797 10796 10795 10794 10793 10791 10791 10790 10789 10788 10787 10786 10784 10782 10781 10780 10779 10777 10775 10772 10771 10771 10771 10770 10768 10767 10765 10764 10762 10760 10759 10757 10755 10752 10749 10747 10745 10742 10740 10738 10735 10732 10728 10724 10722 10719 10716 10713 10710 10707 10704 10701 10698 10695 10693
10772 10773 10776 10778 10780 10783 10785 10788 10789 10791 10793 10794 10795 10795 10795 10795 10795 10795 10795 10798 10800 10799 10797 10797 10796 10795 10794 10794 10793 10793 10793 10793 10791 10791 10789 10788 10787 10786 10786 10785 10783 10782 10780 10779 10778 10777 10776 10774 10772 10770 10768 10767 10767 10766 10764 10763 10760 10759 10757 10755 10754 10752 10749 10747 10744 10742 10740 10738 10735 10733 10730 10727 10724 10720 10717 10714 10711 10708 10705 10702 10699 10696 10693 10690 10687
10767 10769 10772 10774 10776 10778 10781 10784 10785 10786 10788 10790 10791 10791 10792 10792 10792 10791 10791 10794 10797 10796 10794 10794 10793 10792 10791 10791 10790 10790 10789 10789 10788 10787 10786 10784 10783 10783 10783 10781 10779 10778 10776 10775 10775 10774 10773 10771 10769 10767 10766 10764 10763 10761 10760 10758 10757 10755 10753 10751 10748 10746 10744 10741 10739 10737 10735 10732 10729 10727 10724 10721 10719 10716 10713 10709 10706 10703 10700 10697 10694 10691 10687 10684 10681
10762 10765 10768 10770 10772 10774 10777 10779 10781 10782 10784 10786 10787 10788 10788 10788 10789 10788 10788 10790 10793 10793 10792 10790 10789 10788 10788 10788 10788 10787 10786 10785 10784 10783 10782 10781 10780 10779 10779 10777 10776 10774 10772 10771 10771 10771 10769 10767 10765 10764 10762 10760 10759 10757 10756 10754 10752 10751 10748 10746 10743 10740 10738 10735 10732 10730 10728 10726 10723 10721 10718 10715 10713 10710 10707 10704 10701 10698 10695 10692 10689 10686 10682 10678 10674
10757 10761 10764 10767 10769 10770 10772 10775 10777 10778 10780 10782 10783 10784 10784 10784 10785 10783 10783 10786 10788 10790 10788 10787 10785 10785 10784 10784 10784 10783 10782 10782 10780 10779 10778 10777 10777 10776 10775 10774 10772 10771 10769 10768 10768 10768 10766 10763 10762 10761 10760 10758 10756 10754 10752 10750 10748 10746 10744 10741 10739 10736 10733 10729 10726 10723 10721 10719 10716 10714 10711 10709 10706 10703 10700 10697 10694 10692 10690 10687 10684 10680 10676 10672 10668
10753 10756 10760 10763 10765 10765 10767 10770 10773 10775 10776 10777 10778 10779 10780 10781 10781 10779 10779 10782 10784 10785 10785 10783 10782 10781 10780 10780 10780 10779 10778 10778 10777 10775 10774 10774 10773 10772 10772 10770 10769 10768 10765 10764 10764 10764 10763 10760 10758 10757 10757 10755 10753 10751 10748 10746 10744 10742 10740 10737 10735 10732 10729 10726 10722 10719 10716 10713 10710 10708 10705 10702 10699 10697 10694 10691 10689 10687 10684 10681 10678 10675 10671 10666 10662
10749 10754 10757 10758 10760 10761 10764 10766 10769 10771 10772 10773 10773 10775 10777 10777 10777 10775 10775 10777 10779 10781 10780 10779 10778 10777 10776 10776 10776 10775 10774 10774 10773 10771 10770 10770 10769 10768 10767 10766 10766 10764 10762 10761 10760 10760 10759 10756 10754 10753 10753 10751 10749 10746 10744 10742 10740 10738 10736 10733 10731 10728 10725 10722 10718 10715 10712 10709 10706 10703 10700 10698 10695 10692 10689 10687 10684 10681 10679 10676 10672 10669 10665 10660 10656
10745 10750 10752 10753 10755 10757 10760 10762 10764 10766 10767 10768 10770 10771 10773 10774 10774 10771 10771 10774 10775 10776 10775 10774 10774 10772 10772 10772 10772 10771 10770 10770 10769 10767 10766 10766 10765 10764 10763 10762 10762 10761 10759 10757 10756 10756 10754 10752 10750 10749 10748 10746 10744 10742 10740 10738 10736 10734 10732 10729 10726 10723 10720 10717 10713 10711 10708 10705 10702 10699 10696 10694 10691 10689 10685 10682 10679 10677 10674 10671 10667 10663 10658 10654 10650
10739 10743 10745 10747 10751 10754 10756 10758 10759 10762 10763 10764 10766 10767 10768 10770 10769 10768 10768 10770 10771 10772 10771 10771 10770 10769 10768 10767 10768 10767 10767 10766 10765 10764 10763 10762 10761 10761 10760 10759 10758 10757 10755 10754 10752 10751 10750 10748 10746 10744 10743 10741 10739 10737 10735 10734 10732 10730 10727 10724 10721 10718 10715 10712 10709 10706 10703 10700 10698 10695 10692 10690 10688 10685 10681 10678 10675 10672 10669 10666 10661 10657 10653 10649 10645
10733 10736 10740 10742 10746 10749 10751 10753 10755 10758 10759 10760 10762 10762 10764 10766 10764 10764 10765 10766 10767 10767 10767 10767 10766 10765 10764 10764 10764 10763 10763 10763 10762 10760 10759 10758 10757 10756 10756 10755 10754 10753 10751 10749 10748 10746 10745 10743 10742 10740 10738 10737 10735 10733 10731 10729 10727 10724 10722 10719 10716 10714 10711 10707 10704 10701 10698 10696 10694 10691 10688 10686 10684 10681 10677 10673 10670 10668 10664 10660 10656 10651 10647 10644 10640
10728 10731 10734 10737 10740 10743 10745 10749 10752 10754 10755 10756 10757 10758 10760 10761 10759 10760 10761 10763 10763 10763 10763 10763 10762 10762 10761 10760 10760 10759 10759 10759 10759 10757 10756 10755 10753 10752 10751 10750 10750 10748 10747 10745 10744 10742 10741 10739 10737 10736 10734 10733 10731 10729 10726 10724 10721 10719 10717 10714 10711 10709 10706 10702 10699 10696 10693 10691 10688 10686 10683 10681 10679 10676 10673 10669 10666 10663 10659 10655 10651 10647 10643 10639 10636
10723 10726 10728 10731 10734 10737 10741 10745 10748 10749 10750 10751 10752 10753 10755 10755 10755 10755 10757 10759 10759 10759 10760 10759 10758 10758 10758 10757 10756 10755 10755 10754 10754 10753 10753 10752 10750 10749 10748 10747 10746 10745 10743 10741 10740 10739 10737 10735 10733 10731 10730 10728 10726 10723 10721 10718 10715 10713 10711 10708 10705 10703 10700 10697 10694 10691 10688 10686 10683 10681 10678 10676 10674 10671 10668 10665 10661 10658 10654 10650 10646 10643 10639 10635 10632
10718 10720 10723 10726 10729 10733 10737 10741 10743 10744 10746 10747 10748 10749 10750 10750 10750 10750 10753 10754 10755 10755 10755 10755 10754 10755 10754 10753 10752 10751 10750 10749 10748 10748 10748 10747 10747 10746 10745 10743 10742 10740 10739 10737 10735 10734 10732 10730 10728 10727 10725 10723 10720 10718 10715 10713 10710 10708 10705 10702 10700 10697 10695 10692 10689 10686 10683 10681 10678 10676 10674 10671 10669 10666 10663 10659 10656 10652 10648 10645 10642 10638 10635 10631 10627
10711 10714 10718 10722 10725 10728 10732 10736 10738 10739 10741 10742 10743 10744 10745 10746 10746 10746 10748 10750 10751 10751 10751 10751 10751 10751 10751 10750 10748 10747 10747 10745 10744 10742 10742 10742 10741 10741 10740 10739 10737 10735 10734 10732 10730 10728 10727 10726 10724 10722 10720 10717 10715 10712 10710 10707 10704 10702 10700 10697 10694 10692 10690 10687 10684 10681 10678 10676 10673 10671 10668 10666 10664 10661 10658 10654 10651 10647 10643 10640 10637 10634 10630 10627 10623
10705 10709 10713 10716 10720 10724 10728 10732 10734 10734 10735 10737 10739 10740 10740 10741 10741 10742 10744 10745 10746 10747 10747 10747 10747 10747 10747 10746 10745 10744 10743 10742 10740 10739 10738 10737 10736 10735 10734 10733 10732 10730 10728 10726 10724 10721 10720 10720 10719 10717 10715 10712 10709 10707 10704 10702 10699 10697 10695 10692 10690 10687 10685 10682 10679 10677 10674 10671 10668 10666 10663 10660 10659 10656 10653 10649 10646 10643 10640 10637 10634 10630 10626 10622 10618
10701 10705 10707 10710 10715 10720 10725 10728 10729 10729 10730 10732 10734 10735 10735 10736 10736 10737 10739 10740 10742 10742 10742 10743 10743 10744 10743 10742 10741 10740 10740 10738 10737 10735 10734 10733 10732 10730 10729 10728 10727 10725 10723 10721 10719 10716 10715 10714 10713 10712 10710 10707 10704 10702 10699 10697 10694 10692 10689 10687 10685 10682 10679 10677 10674 10672 10669 10667 10664 10661 10658 10655 10653 10651 10648 10645 10642 10639 10636 10633 10630 10626 10622 10618 10614
10697 10699 10701 10706 10711 10716 10721 10723 10723 10724 10726 10728 10730 10730 10730 10731 10731 10732 10734 10736 10737 10738 10738 10739 10739 10739 10739 10738 10737 10736 10736 10735 10734 10732 10731 10729 10728 10727 10726 10724 10723 10721 10719 10716 10714 10712 10710 10709 10708 10707 10705 10703 10700 10697 10694 10691 10689 10687 10685 10682 10680 10677 10675 10672 10670 10667 10665 10662 10660 10657 10654 10651 10648 10646 10643 10640 10638 10635 10633 10629 10626 10622 10618 10614 10610
10691 10694 10697 10702 10706 10711 10715 10718 10718 10719 10721 10723 10725 10726 10726 10726 10726 10727 10729 10731 10733 10733 10734 10735 10735 10735 10735 10734 10733 10733 10733 10732 10730 10729 10727 10726 10724 10723 10722 10721 10719 10716 10714 10712 10709 10707 10706 10704 10703 10702 10700 10698 10695 10692 10689 10686 10684 10682 10680 10677 10675 10673 10670 10668 10665 10663 10660 10658 10655 10652 10650 10647 10644 10641 10639 10636 10634 10631 10629 10626 10622 10618 10614 10610 10605